Location: Buckeye Ditch
(40.9104°N, 122.9517°W)
Time: 18:41:48
(UTC+00:00)

Vanguard 1 - Pass Details

Date: 22 May 2025
Orbit: 649 x 3822 km, 34.3° (Epoch: 15 June)

Event Time Altitude Azimuth Distance (km) Brightness Sun altitude
Rises 04:57:22 0° 273° (W) 6,371 15.0 -14.3°
Reaches altitude 10° 05:02:26 10° 269° (W) 4,830 14.2 -15.0°
Maximum altitude 05:13:48 48° 201° (SSW) 1,779 11.1 -16.5°
Enters shadow 05:17:52 25° 141° (SE) 2,116 11.1 -17.0°
